[[{"header":{"parameterUnit":"m.s-1","parameterCategory":1,"la1":30.2991,"la2":30.254,"lo1":-89.0895,"lo2":-89.0444,"dy":0.0017,"dx":0.0017,"nx":28,"ny":28,"refTime":"2024-04-03T21:00:00:Z","depth":0,"parameterNumber":2,"parameterNumberName":"U-component_of_WINDS"},"data":[0,0,0,0,0,0,0,0,0,0,0,0,0,0,0,0,0,0,0,0,0,0,0,0,0,0,0,0,0,0,0,0,0,0,0,0,0,0,0,0,0,0,0,0,0,0,0,0,0,0,0,0,0,0,0,0,0,0,3.5346,3.5347,0,3.5485,3.5487,3.5488,3.5439,3.5436,3.5433,3.543,3.5576,3.5583,3.559,0,0,0,0,0,0,0,0,0,0,0,0,0,3.5041,3.5047,3.5346,3.5347,3.5349,3.5485,3.5487,3.5489,3.544,3.5436,3.5432,3.5429,3.5574,3.5582,3.559,0,0,0,0,0,0,0,0,0,0,0,0,0,3.5177,3.5049,3.5345,3.5341,3.5342,3.5484,3.5487,3.5489,3.544,3.5436,3.5431,3.5427,3.5572,3.5581,3.5592,3.5748,0,0,3.5623,3.5627,0,0,0,0,0,0,0,0,3.5169,3.5188,3.534,3.5341,3.5343,3.544,3.5433,3.5576,3.5442,3.5403,3.543,3.5424,3.5535,3.5548,3.5584,3.5755,3.5761,3.5624,3.563,3.5634,3.5637,0,0,0,0,0,0,0,3.516,3.5182,3.5401,3.5342,3.5344,3.5333,3.5347,3.546,3.5494,3.5406,3.5403,3.542,3.5535,3.5575,3.5588,3.5763,3.5623,3.5632,3.5639,3.5643,3.6071,3.6076,0,0,0,0,0,0,3.5149,3.5174,3.5396,3.5405,3.5242,3.5343,3.5358,3.5414,3.5492,3.55,3.5424,3.5417,3.556,3.5576,3.5593,3.5782,3.5634,3.5644,3.565,3.6066,3.6072,3.6078,0,0,0,0,0,0,3.5143,3.5169,3.5391,3.5289,3.5316,3.5353,3.5415,3.5419,3.5458,3.5506,3.5512,3.5458,3.5557,3.5578,3.571,3.5786,3.5648,3.5658,3.6059,3.6067,3.6075,3.6161,0,0,0,0,0,0,3.5134,3.5167,3.5226,3.529,3.5322,3.5505,3.542,3.5425,3.5476,3.5468,3.5539,3.5547,3.5555,3.5695,3.572,3.5798,3.5666,3.6053,3.6063,3.6072,3.6151,3.6171,3.6187,0,0,0,0,0,3.5123,3.5245,3.5229,3.5256,3.5396,3.5509,3.5527,3.5533,3.5482,3.5542,3.5573,3.5544,3.5774,3.5709,3.5737,3.5818,3.6048,3.606,3.6072,3.6143,3.6167,3.6187,0,0,0,0,0,0,3.519,3.5253,3.5236,3.5382,3.5441,3.55,3.5576,3.5557,3.5632,3.5622,3.5627,3.5644,3.578,3.5812,3.5739,3.5975,3.5903,3.5921,3.5948,3.5971,3.5989,3.5978,3.5674,0,0,0,0,0,3.5221,3.5306,3.5358,3.5482,3.5512,3.5539,3.5589,3.5588,3.5649,3.5674,3.5714,3.5776,3.5862,3.5918,3.6,3.6156,3.6171,3.6226,3.6244,3.6258,3.6274,3.636,3.6386,3.6116,3.6116,3.6116,0,0,3.5287,3.5332,3.5386,3.5496,3.5541,3.5631,3.556,3.5658,3.5725,3.5689,3.5816,3.5848,3.5917,3.6062,3.6127,3.6093,3.6352,3.6274,3.6285,3.6293,3.6375,3.6401,3.6423,3.6124,3.6123,3.6122,0,0,3.5453,3.5496,3.5604,3.5651,3.5719,3.5737,3.5763,3.5827,3.5846,3.5973,3.5948,3.6029,3.6177,3.6227,3.6272,3.646,3.6437,3.6486,3.658,3.6664,3.6685,3.6704,3.6772,3.6796,3.6501,3.6502,3.6502,0,3.5527,3.566,3.5662,3.5763,3.5813,3.5783,3.5894,3.594,3.6032,3.6068,3.6028,3.6213,3.6258,3.6415,3.646,3.6498,3.6529,3.6478,3.6682,3.6701,3.6718,3.6783,3.6808,3.6507,3.6507,3.6506,3.6506,0,3.5748,3.5841,3.592,3.6009,3.6068,3.6173,3.6193,3.6253,3.6248,3.627,3.6401,3.6453,3.6545,3.6583,3.6579,3.674,3.6716,3.6679,3.6607,3.6749,3.681,3.6835,3.6515,3.6513,3.6512,3.651,0,0,3.5959,3.6049,3.6078,3.6118,3.6193,3.6265,3.637,3.6459,3.6511,3.6576,3.6665,3.6791,3.6758,3.6809,3.6811,3.6885,3.7031,3.6839,3.684,3.6873,3.7213,3.7241,3.7269,3.7016,3.7021,3.7025,3.7207,0,3.6132,3.6313,3.6319,3.6486,3.6573,3.6547,3.6639,3.6695,3.6719,3.6798,3.6825,3.6915,3.6863,3.6894,3.6966,3.6998,3.7099,3.6985,3.71,3.7104,3.7084,3.7301,3.733,3.75,3.7231,3.7235,3.7238,0,3.6357,3.6429,3.6604,3.6667,3.6704,3.6785,3.6868,3.6943,3.7007,3.702,3.7078,3.7069,3.7178,3.7103,3.7254,3.7176,3.7224,3.7247,3.7253,3.7265,3.718,3.7318,3.7554,3.758,3.7275,3.7272,3.727,0,3.6494,3.6635,3.6758,3.6794,3.687,3.6928,3.6963,3.7023,3.7076,3.715,3.7185,3.727,3.7317,3.7384,3.74,3.7343,3.7551,3.7477,3.7566,3.7566,3.7611,3.7608,3.7858,3.7641,3.7641,3.764,3.764,0,3.6687,3.6795,3.6821,3.6897,3.7018,3.7025,3.7146,3.7176,3.723,3.7313,3.7296,3.7374,3.739,3.7472,3.7485,3.7608,3.763,3.7644,3.7646,3.7646,3.7644,3.7677,3.7666,3.7647,3.7646,3.7644,3.7643,0,3.6861,3.6882,3.7015,3.7076,3.7094,3.7181,3.7235,3.7308,3.7331,3.7436,3.7461,3.7497,3.7593,3.7615,3.7729,3.7738,3.7885,3.7875,3.7863,3.7862,3.795,3.7942,3.823,3.8269,3.8027,3.8029,3.8031,0,3.6982,3.7065,3.7135,3.7189,3.7226,3.7313,3.7367,3.7378,3.7436,3.7516,3.7581,3.7674,3.775,3.7905,3.7942,3.803,3.8023,3.8118,3.8036,3.8033,3.8025,3.802,3.8029,3.8134,3.8136,3.8139,3.814,0,3.7196,3.7202,3.7281,3.7364,3.7429,3.7496,3.7559,3.7604,3.7624,3.769,3.7787,3.7846,3.7962,3.8056,3.8145,3.8182,3.8166,3.8166,3.8191,3.8192,3.8181,3.8189,3.7906,3.8159,3.8157,3.8156,3.8155,3.8154,3.7348,3.742,3.7481,3.757,3.7618,3.7678,3.775,3.7782,3.7863,3.7957,3.7959,3.8066,3.813,3.8247,3.829,3.8374,3.8345,3.8382,3.8391,3.84,3.8408,3.8167,3.839,3.839,3.8389,3.8389,3.8389,0,3.7561,3.7599,3.768,3.7769,3.7839,3.7816,3.7885,3.7946,3.8039,3.8099,3.8174,3.8287,3.8378,3.8423,3.8514,3.8573,3.8568,3.8597,3.8593,3.8602,3.8429,3.8398,3.86,3.86,3.86,3.86,3.8599,3.8599,3.768,3.7802,3.7816,3.7963,3.8001,3.8104,3.8146,3.8201,3.8249,3.8375,3.8451,3.8479,3.8534,3.8629,3.8712,3.8723,3.8758,3.8791,3.8798,3.8636,3.8614,3.8594,3.8565,3.8798,3.8798,3.8964,3.8966,3.8967]},{"header":{"parameterUnit":"m.s-1","parameterCategory":1,"la1":30.2991,"la2":30.254,"lo1":-89.0895,"lo2":-89.0444,"dy":0.0017,"dx":0.0017,"nx":28,"ny":28,"refTime":"2024-04-03T21:00:00:Z","depth":0,"parameterNumber":3,"parameterNumberName":"V-component_of_WINDS"},"data":[0,0,0,0,0,0,0,0,0,0,0,0,0,0,0,0,0,0,0,0,0,0,0,0,0,0,0,0,0,0,0,0,0,0,0,0,0,0,0,0,0,0,0,0,0,0,0,0,0,0,0,0,0,0,0,0,0,0,0.2274,0.2273,0,0.2207,0.2206,0.2206,0.2173,0.2173,0.2173,0.2173,0.21,0.2099,0.2097,0,0,0,0,0,0,0,0,0,0,0,0,0,0.237,0.2368,0.2274,0.2273,0.2273,0.2207,0.2206,0.2205,0.2173,0.2173,0.2173,0.2173,0.2101,0.2099,0.2096,0,0,0,0,0,0,0,0,0,0,0,0,0,0.2318,0.2368,0.2274,0.2248,0.2245,0.2207,0.2206,0.2205,0.2173,0.2173,0.2173,0.2173,0.2102,0.2099,0.2096,0.2078,0,0,0.2087,0.2086,0,0,0,0,0,0,0,0,0.2321,0.2315,0.2253,0.225,0.2247,0.2198,0.2214,0.2162,0.2173,0.22,0.2173,0.2173,0.2133,0.2127,0.2115,0.2075,0.2071,0.2087,0.2085,0.2084,0.2083,0,0,0,0,0,0,0,0.2325,0.2317,0.2248,0.2252,0.2248,0.2239,0.2231,0.2204,0.2167,0.2198,0.2195,0.2188,0.2131,0.2117,0.2113,0.207,0.2087,0.2085,0.2083,0.2082,0.2011,0.2011,0,0,0,0,0,0,0.2333,0.2321,0.225,0.2246,0.2285,0.2237,0.2229,0.2214,0.2167,0.216,0.2188,0.2187,0.2122,0.2116,0.211,0.2085,0.2084,0.2081,0.208,0.2011,0.2011,0.2011,0,0,0,0,0,0,0.2335,0.2327,0.2252,0.2282,0.2272,0.2235,0.2219,0.2212,0.2199,0.216,0.2153,0.2181,0.2122,0.2114,0.2086,0.2082,0.208,0.2077,0.2011,0.2011,0.2011,0.2036,0,0,0,0,0,0,0.2338,0.2328,0.2322,0.2283,0.2271,0.2231,0.2218,0.2211,0.2194,0.2192,0.2152,0.2145,0.2122,0.2091,0.2083,0.2078,0.2075,0.2012,0.2011,0.2011,0.2035,0.2037,0.2038,0,0,0,0,0,0.2342,0.2331,0.2322,0.2313,0.2262,0.2231,0.2224,0.2198,0.2194,0.2187,0.2162,0.2146,0.2084,0.2088,0.208,0.2074,0.2012,0.2011,0.2011,0.2035,0.2036,0.2038,0,0,0,0,0,0,0.2369,0.2325,0.2314,0.2291,0.2265,0.2225,0.2215,0.2201,0.2175,0.2174,0.2142,0.2133,0.2108,0.2088,0.2093,0.2053,0.2046,0.2044,0.2067,0.2068,0.207,0.2075,0.2073,0,0,0,0,0,0.2373,0.2352,0.2314,0.2297,0.2285,0.2252,0.2238,0.222,0.2192,0.218,0.2153,0.2125,0.2099,0.2083,0.2056,0.2032,0.2022,0.2024,0.2025,0.2026,0.2025,0.2009,0.2009,0.201,0.201,0.201,0,0,0.2379,0.2353,0.2341,0.2302,0.228,0.2258,0.2243,0.2221,0.2204,0.2176,0.2149,0.2128,0.2094,0.2068,0.2055,0.2051,0.2022,0.2026,0.2027,0.2025,0.2009,0.2009,0.2009,0.201,0.201,0.201,0,0,0.238,0.2358,0.2342,0.232,0.2287,0.2266,0.2262,0.2224,0.221,0.2182,0.216,0.2139,0.2095,0.2072,0.2055,0.2047,0.2031,0.2039,0.2045,0.2031,0.2031,0.2031,0.2027,0.2027,0.2038,0.2038,0.2038,0,0.2392,0.236,0.2334,0.2313,0.2296,0.2271,0.2253,0.2233,0.2193,0.2181,0.2177,0.2121,0.2097,0.2064,0.2063,0.2049,0.2043,0.2043,0.2033,0.2033,0.2032,0.2029,0.2027,0.2039,0.2039,0.2039,0.2039,0,0.2376,0.2354,0.2344,0.2307,0.2289,0.227,0.224,0.2224,0.2208,0.2187,0.2158,0.2128,0.2095,0.2086,0.207,0.2051,0.2049,0.204,0.2032,0.2034,0.203,0.2028,0.2041,0.204,0.204,0.204,0,0,0.2393,0.2342,0.2339,0.2322,0.2284,0.2265,0.2244,0.2214,0.22,0.2173,0.2154,0.2118,0.2108,0.2089,0.2069,0.2057,0.2052,0.2048,0.2047,0.205,0.2029,0.2036,0.2035,0.2041,0.2041,0.2041,0.2031,0,0.2388,0.2351,0.2327,0.2298,0.2277,0.2253,0.2234,0.2208,0.2188,0.2166,0.2142,0.2117,0.2107,0.2095,0.2081,0.2055,0.2047,0.2056,0.2022,0.2021,0.2031,0.2033,0.2041,0.2033,0.203,0.2029,0.2029,0,0.2378,0.2353,0.2323,0.2287,0.2277,0.2261,0.2231,0.221,0.218,0.2166,0.2144,0.2124,0.21,0.2094,0.2059,0.2066,0.205,0.2036,0.2035,0.203,0.2025,0.2028,0.203,0.2029,0.2027,0.2027,0.2027,0,0.2392,0.2351,0.2328,0.2314,0.2272,0.2261,0.2242,0.2212,0.2195,0.2168,0.2156,0.2126,0.2109,0.2086,0.2058,0.2057,0.2026,0.2019,0.2012,0.2013,0.2007,0.2007,0.2006,0.1997,0.1997,0.1997,0.1997,0,0.239,0.2372,0.2334,0.2319,0.2299,0.2271,0.225,0.223,0.2203,0.2183,0.216,0.2141,0.2106,0.2083,0.2061,0.2035,0.2028,0.2015,0.2009,0.2017,0.2018,0.2006,0.2005,0.1997,0.1997,0.1997,0.1997,0,0.2402,0.2376,0.2349,0.2312,0.2302,0.2288,0.2255,0.2239,0.2218,0.2193,0.2185,0.215,0.2122,0.2092,0.2053,0.2039,0.2013,0.2005,0.2024,0.2021,0.2016,0.2017,0.2007,0.2003,0.1997,0.1998,0.1998,0,0.2402,0.2389,0.235,0.2336,0.2318,0.2295,0.2278,0.225,0.2232,0.2196,0.2185,0.2155,0.2129,0.2085,0.2055,0.2025,0.2016,0.2014,0.2011,0.2019,0.2015,0.2016,0.2014,0.2015,0.2016,0.2016,0.2016,0,0.2405,0.2393,0.2369,0.2342,0.2322,0.2298,0.2273,0.2263,0.2229,0.221,0.2182,0.2162,0.2123,0.2093,0.2059,0.2038,0.2021,0.2017,0.2014,0.2022,0.2033,0.2026,0.2027,0.2018,0.2017,0.2017,0.2017,0.2017,0.2411,0.2397,0.2368,0.2343,0.2321,0.2299,0.2282,0.2259,0.2235,0.2202,0.2186,0.2157,0.2126,0.2079,0.2059,0.2034,0.2029,0.2025,0.2024,0.2023,0.2025,0.2037,0.2028,0.2028,0.2028,0.2028,0.2028,0,0.2412,0.2392,0.2369,0.2336,0.2316,0.2303,0.2274,0.2258,0.2233,0.2206,0.2182,0.2149,0.212,0.2088,0.2056,0.2043,0.2034,0.2036,0.2036,0.2031,0.2031,0.2037,0.2043,0.2043,0.2043,0.2043,0.2043,0.2043,0.241,0.2386,0.2371,0.2336,0.2315,0.2288,0.2273,0.2251,0.223,0.2194,0.217,0.215,0.2121,0.2087,0.2059,0.2051,0.204,0.2043,0.2032,0.2033,0.2032,0.203,0.2036,0.2041,0.2041,0.2034,0.2034,0.2034]}]]